Tracking 31027 objects as of 19-Jul-2025
HD Live streaming from Space Station
objects crossing your sky now

STARLINK-3741

Track STARLINK-3741 now!
10-day predictions
STARLINK-3741 is classified as:


NORAD ID: 52619
Int'l Code: 2022-052X
Perigee: 546.1 km
Apogee: 547.7 km
Inclination: 53.2 °
Period: 95.4 minutes
Semi major axis: 6917 km
RCS: Unknown
Launch date: May 14, 2022
Source: United States (US)
Launch site: AIR FORCE EASTERN TEST RANGE (AFETR)
Your satellite tracking list
COSMOS 830
Track 1 satellite(s)




NASA's NSSDC Master Catalog

Two Line Element Set (TLE):
1 52619U 22052X   25199.38399315  .00000641  00000-0  58332-4 0  9997
2 52619  53.2166 240.9524 0001154  85.8854 274.2270 15.08843418175619
Source of the keplerian elements: AFSPC